GEFSMA_500_meanwind_024.txt.gz
Wind_Speed
15 14 14 14 14 14 14 15 15 15 16 18 18 18 19 19 20 21 22 22 20 19 18 18 18 17 17 16 14 14 13 13 13 13 13 14 14 14 14 15 17 18 18
17 17 17 16 16 16 17 17 17 17 18 20 21 21 21 21 21 22 23 24 23 22 21 20 20 19 19 18 17 16 15 15 15 15 15 15 15 16 16 17 18 19 20
20 19 19 18 18 18 19 20 20 20 21 22 23 23 24 24 24 24 24 25 26 25 24 23 22 22 22 21 20 19 18 17 17 17 17 17 17 17 17 18 19 20 21
22 21 21 21 20 20 21 22 23 23 23 24 25 26 26 26 26 26 26 27 28 28 28 27 26 25 24 24 23 22 21 20 19 19 19 18 18 18 18 19 20 21 22
25 24 23 23 23 23 24 25 26 26 26 27 28 28 29 28 29 28 28 28 29 30 30 30 29 28 27 26 25 25 24 23 22 22 21 20 19 19 19 20 21 21 22
28 27 26 26 26 26 27 28 29 30 31 32 32 31 31 32 31 31 31 30 30 30 31 32 31 30 29 28 28 27 26 25 24 23 23 22 21 21 20 21 21 22 22
31 30 29 29 29 30 30 32 34 34 34 37 37 35 34 35 34 34 33 33 32 31 31 32 32 32 31 30 30 28 27 27 26 25 25 24 23 23 22 22 22 23 23
35 32 31 31 32 32 33 35 37 37 37 40 41 41 37 36 37 37 36 35 34 33 32 32 32 32 31 30 30 29 28 28 28 28 27 26 25 24 24 23 23 22 22
33 31 31 31 32 32 34 36 38 40 41 41 43 44 43 38 38 38 38 37 36 35 34 33 32 32 32 31 30 30 29 29 30 29 29 27 26 25 24 24 23 22 22
32 30 30 30 31 33 35 37 40 42 43 43 44 44 45 43 40 38 38 38 37 36 35 34 32 33 33 32 31 31 31 30 31 30 30 29 27 25 25 24 24 23 22
30 30 31 31 33 35 37 39 41 43 44 45 44 44 44 43 42 39 36 37 37 36 36 35 34 34 34 33 33 33 32 32 32 31 31 29 28 26 25 25 24 23 23
31 32 33 35 36 38 39 41 42 43 43 43 43 42 42 41 39 38 36 35 36 36 37 37 35 35 35 36 36 35 34 34 33 33 32 30 28 27 26 25 24 24 23
34 35 37 38 40 40 41 41 41 40 39 39 38 38 37 37 36 35 35 34 36 37 38 38 38 37 37 37 37 37 36 35 34 33 33 31 29 28 26 25 25 24 23
37 38 40 40 41 41 40 38 36 35 34 33 32 32 32 32 32 33 33 34 35 36 37 38 38 38 37 37 38 37 37 36 36 35 33 31 30 29 27 26 25 24 23
38 39 39 39 38 37 36 33 32 30 29 28 28 28 28 29 31 32 33 34 36 36 37 38 39 38 36 35 36 36 37 37 37 34 32 31 30 29 27 26 25 24 23
37 38 36 35 34 33 32 30 29 27 27 27 26 26 27 27 28 30 32 32 34 35 37 37 39 38 37 35 35 35 36 37 36 33 32 30 29 28 27 25 24 24 23
36 35 33 32 32 31 30 29 28 27 26 26 26 26 26 25 26 27 29 31 33 34 36 37 37 37 36 34 35 35 37 37 34 33 31 30 29 27 26 25 24 23 22
34 33 32 32 32 31 30 29 28 28 27 27 27 26 26 26 26 25 27 27 28 31 33 34 35 35 34 33 34 35 35 33 32 31 30 29 27 26 25 23 22 22 22
33 32 32 31 31 30 29 29 28 28 28 28 28 28 27 27 27 25 25 25 24 25 26 27 28 29 30 29 30 30 28 28 28 27 27 28 26 25 23 22 22 22 22
32 31 31 31 30 29 29 28 28 28 28 28 27 28 28 28 28 27 26 25 23 21 20 21 20 21 23 24 24 25 25 25 25 24 25 25 24 24 23 22 21 21 21
30 30 30 29 29 29 28 28 27 27 28 28 28 28 28 29 29 29 29 28 26 24 22 20 20 19 20 21 21 22 22 23 23 23 24 24 24 23 22 21 21 21 21
28 29 29 28 28 27 27 27 27 27 27 28 28 28 29 29 30 31 31 30 29 28 27 25 24 23 21 20 20 20 21 23 23 23 22 23 23 23 22 21 21 21 21
27 27 27 26 26 25 25 25 25 26 26 27 27 27 28 28 29 31 31 32 32 32 31 30 29 28 27 25 24 23 24 24 24 24 24 25 25 24 23 22 21 21 22
24 24 23 23 23 22 23 23 23 24 24 24 25 25 26 27 28 29 30 31 32 33 34 34 34 33 32 31 30 28 28 27 27 27 28 27 27 27 26 24 23 23 23
20 19 18 18 19 20 21 21 21 21 21 21 21 22 23 23 25 26 28 29 31 32 34 35 36 36 36 36 35 33 33 32 31 30 30 30 29 28 27 27 27 26 26
15 15 16 17 17 18 18 18 18 18 18 18 18 19 19 20 22 23 24 26 27 28 30 32 33 35 36 37 38 38 37 36 36 37 36 33 33 34 33 33 32 31 30

GEFSMA_500_meanwind_030.txt.gz
Wind_Speed
22 21 21 22 22 22 21 20 18 18 17 16 16 15 15 15 15 16 17 17 18 18 19 19 20 20 19 18 18 17 16 16 15 14 14 14 14 14 15 15 15 16 16
25 26 26 25 25 25 25 24 22 21 20 19 19 19 18 18 19 19 19 20 20 20 20 21 21 22 22 21 20 20 20 19 19 18 17 16 16 16 16 16 17 17 17
30 30 30 29 29 28 27 27 25 25 24 22 22 22 22 22 22 22 23 23 23 23 22 23 23 24 24 24 24 23 23 22 22 21 20 19 18 17 17 18 18 18 18
35 34 33 33 32 31 30 29 29 28 27 26 25 25 25 25 26 26 26 26 26 26 26 25 25 25 26 27 27 26 26 25 24 24 23 22 21 20 19 19 19 19 19
38 38 38 37 35 34 34 33 32 31 31 30 29 29 29 29 29 30 30 30 29 29 29 28 28 27 27 28 28 29 29 28 27 27 26 26 24 22 21 21 20 20 20
42 42 42 41 40 38 37 36 35 35 34 34 33 32 32 32 32 33 34 34 34 33 32 32 31 30 29 29 29 30 31 31 30 29 29 29 27 25 23 22 22 22 22
46 46 46 45 45 42 40 39 38 37 37 36 35 35 34 34 34 35 37 37 37 36 35 34 34 33 32 32 31 31 32 32 33 33 32 31 30 28 26 24 23 23 23
48 48 48 48 46 44 42 42 40 38 37 37 37 37 35 35 37 37 38 39 39 39 37 36 36 36 35 35 34 33 33 33 33 33 32 32 31 30 28 26 25 24 24
47 49 48 48 47 45 43 42 41 39 38 37 38 38 37 37 38 38 39 40 40 40 39 38 37 37 37 37 36 35 34 34 33 33 32 31 31 31 30 28 26 25 25
46 46 47 47 46 42 39 38 37 36 35 36 36 38 39 39 39 38 37 39 39 40 40 39 38 38 38 38 37 36 35 35 35 34 33 32 32 32 32 30 28 27 26
46 46 44 43 41 38 36 35 34 34 34 35 36 37 38 38 39 38 36 36 37 38 38 38 38 37 37 37 37 37 37 36 36 35 35 35 34 33 33 32 30 28 27
48 45 44 40 35 34 33 32 33 33 34 35 36 36 37 37 36 36 35 33 33 35 36 37 37 37 37 37 37 38 38 37 37 36 36 36 36 36 35 34 32 30 28
46 44 43 38 33 32 31 31 31 32 33 34 35 35 35 34 34 33 32 31 31 32 35 36 37 37 38 38 38 39 38 38 38 38 37 37 38 37 36 35 34 31 30
44 42 40 36 32 31 30 30 31 32 33 33 33 33 32 32 31 31 31 30 30 31 33 35 37 38 38 38 38 38 39 39 39 40 39 38 38 39 38 37 35 33 31
42 41 39 37 33 31 30 30 31 31 31 31 31 30 31 31 31 30 30 30 30 31 31 33 36 38 39 38 38 38 39 39 39 40 40 40 39 40 39 38 37 34 32
42 40 39 36 33 31 31 31 31 31 30 30 29 29 30 31 31 31 31 31 31 32 32 32 34 36 37 38 38 39 39 40 39 40 41 40 40 39 39 39 38 35 33
40 38 36 34 32 31 31 31 30 30 29 29 29 30 31 32 32 32 33 33 33 33 33 32 32 32 33 34 36 38 40 40 40 39 38 40 40 39 39 40 39 36 33
38 37 34 32 32 31 31 30 29 28 28 29 30 31 32 32 33 34 34 35 35 34 34 33 32 31 31 31 31 33 35 36 37 37 37 38 38 38 38 39 38 36 33
35 34 31 30 30 29 29 28 28 28 28 29 30 31 32 33 34 34 35 36 36 35 35 34 33 32 30 29 29 30 32 32 33 33 34 34 35 35 34 36 36 34 33
30 29 28 28 27 26 26 26 27 27 28 29 30 31 32 33 34 35 35 36 36 36 36 35 34 33 31 29 28 27 28 28 28 29 31 31 32 31 30 31 32 31 31
25 25 26 26 25 25 25 25 26 27 27 28 29 30 31 33 33 34 35 35 36 36 36 35 35 34 32 30 29 27 27 25 24 25 27 27 27 28 28 28 29 30 30
21 21 22 22 22 23 23 24 24 25 26 27 28 29 30 31 32 33 34 34 34 35 35 35 35 34 33 32 31 29 28 26 25 24 24 24 24 24 26 28 29 30 32
17 17 18 18 19 20 20 21 21 22 23 24 25 26 28 29 30 30 31 32 32 33 33 33 33 33 33 32 31 31 30 29 27 25 24 21 21 23 24 25 28 31 33
13 13 14 15 16 17 17 18 18 19 20 22 23 24 25 25 26 27 28 28 29 30 31 31 32 32 32 32 31 30 30 30 30 29 27 25 23 22 23 25 27 30 33
12 12 13 13 13 14 14 14 15 17 18 19 20 20 21 22 23 24 25 26 27 28 29 30 31 31 31 32 31 31 31 30 30 31 30 28 27 25 24 25 25 26 29
11 11 12 12 12 12 12 13 14 14 15 15 16 17 18 20 21 23 24 26 27 28 29 30 30 31 32 32 31 31 31 31 31 30 30 30 29 28 27 26 25 25 27

GEFSMA_500_meanwind_036.txt.gz
Wind_Speed
28 28 29 29 29 28 28 28 27 26 26 26 26 25 25 24 23 21 20 19 19 17 17 17 17 17 16 16 17 17 17 17 16 16 16 16 16 16 15 15 14 14 14
33 33 34 34 34 33 33 32 31 31 30 29 29 29 28 27 27 26 24 23 22 21 21 20 19 19 19 19 19 19 19 19 19 19 19 18 18 18 18 17 17 16 16
37 38 39 39 39 38 38 37 36 35 34 33 32 32 31 31 31 30 29 27 26 25 24 24 23 22 22 21 21 21 21 21 21 22 21 21 21 21 21 20 19 18 17
41 41 42 42 43 42 42 41 40 39 38 37 36 35 34 34 33 33 32 31 30 29 28 27 26 25 25 24 24 23 23 23 23 24 24 24 23 23 23 23 22 21 20
43 44 44 45 46 45 44 45 44 42 40 40 39 38 37 36 35 35 35 34 33 33 32 30 29 28 28 27 27 26 26 25 25 25 26 26 26 26 25 25 25 24 23
45 45 47 48 49 48 47 45 44 43 43 42 41 39 38 37 36 36 36 36 36 36 35 34 32 30 30 29 29 29 28 27 27 27 27 27 28 28 28 27 27 27 26
47 46 48 49 50 50 48 45 44 44 45 44 42 41 40 39 38 37 37 37 37 37 37 36 34 32 32 31 31 30 30 30 29 29 29 29 29 29 30 30 29 29 29
47 48 48 49 50 49 48 46 45 46 45 43 42 41 41 39 39 38 38 38 38 37 36 36 36 34 33 31 31 32 32 32 31 31 31 31 31 31 31 31 31 31 31
49 49 49 49 49 48 46 45 44 44 44 44 44 43 41 39 38 37 38 38 37 36 35 35 34 33 32 31 29 30 32 32 32 32 33 33 33 33 33 32 31 32 32
50 50 47 48 48 46 45 44 44 43 42 42 41 41 40 38 37 35 36 37 36 35 34 34 33 32 30 29 28 28 29 31 32 33 34 34 34 34 34 33 33 32 32
51 50 48 48 48 47 46 44 44 42 41 39 39 40 40 38 37 35 34 34 35 34 33 33 31 30 28 27 26 26 26 28 30 32 34 34 35 36 35 35 34 34 34
52 52 51 51 49 48 46 44 42 40 39 37 37 38 38 37 37 36 34 33 32 33 32 31 29 28 27 26 25 25 26 28 29 31 33 34 35 36 37 37 36 36 36
53 53 52 52 50 48 46 44 41 39 38 36 35 35 35 35 35 35 34 31 30 30 30 29 28 27 27 26 26 26 27 29 30 32 34 35 36 37 38 39 40 39 38
53 53 53 52 51 49 46 44 42 39 38 36 35 34 34 33 33 32 31 29 28 29 29 28 28 28 28 28 28 28 29 30 31 33 34 36 37 38 39 39 40 40 39
53 52 52 50 49 48 45 44 42 39 37 36 34 33 32 31 30 29 29 29 28 28 28 28 29 29 30 30 31 31 31 32 32 33 34 35 36 37 38 39 40 40 39
50 49 47 47 46 45 43 42 41 39 36 35 34 32 30 29 28 28 28 28 28 28 28 29 30 30 31 32 33 33 33 33 34 34 34 35 36 37 38 40 41 41 41
45 44 43 42 41 40 40 39 37 36 34 32 30 29 28 28 28 28 28 27 28 28 29 31 32 32 33 34 34 35 35 35 35 35 35 35 36 37 38 39 40 41 41
39 38 38 37 37 37 37 36 35 34 32 30 28 28 27 27 27 27 28 28 29 29 30 31 33 33 34 35 36 36 37 37 36 36 36 36 35 36 37 39 39 40 40
31 32 31 32 32 32 33 33 33 32 30 28 27 27 26 26 27 27 28 28 29 30 31 32 33 34 35 35 36 36 37 37 36 36 36 35 35 35 35 36 37 38 39
26 27 29 29 30 29 30 31 30 29 26 25 24 24 25 25 25 26 26 27 28 29 30 32 33 34 35 35 35 36 36 36 36 36 35 36 35 34 34 35 35 36 37
21 21 22 24 26 26 26 26 25 23 21 21 22 22 22 22 22 23 24 25 27 28 29 30 32 33 34 34 35 35 35 35 36 36 35 34 34 34 34 33 32 32 33
17 16 16 18 19 19 20 20 19 18 18 18 19 19 19 19 20 21 22 23 24 25 26 28 29 30 31 32 33 34 34 34 34 34 34 33 32 32 32 31 30 30 30
13 11 11 12 14 14 15 16 16 16 16 16 16 16 17 17 18 18 19 19 20 22 24 25 27 28 29 31 32 32 33 33 32 32 31 31 31 31 30 29 29 28 28
10 9 9 10 11 12 13 14 14 14 13 13 13 14 14 13 14 14 16 17 19 21 23 25 27 29 31 32 33 33 33 33 32 31 30 30 29 29 28 27 26 25 25
9 8 8 8 8 9 10 10 10 11 11 11 10 10 10 11 11 13 14 16 18 21 23 26 28 29 30 31 32 33 33 32 32 31 30 30 29 28 27 26 25 24 23
9 8 8 8 8 8 8 9 9 9 8 8 7 8 8 10 11 12 14 16 19 22 23 25 26 27 28 29 30 30 31 30 30 29 29 29 29 28 27 26 25 24 23

GEFSMA_500_meanwind_042.txt.gz
Wind_Speed
27 26 26 26 26 26 26 26 26 26 26 26 27 27 27 28 28 29 29 28 27 26 24 22 20 19 18 17 17 17 17 17 18 18 18 18 17 16 16 15 14 13 12
30 30 30 30 29 29 29 29 28 28 29 29 29 30 30 30 30 31 31 31 30 29 27 26 24 23 22 21 20 19 19 20 20 20 20 20 20 20 19 18 17 16 15
33 33 33 33 33 32 32 31 31 31 31 31 31 31 32 31 31 32 33 33 32 31 30 29 27 26 25 25 24 23 22 22 23 23 22 22 22 22 22 21 20 19 18
34 35 35 35 35 35 34 33 33 33 33 33 33 33 33 33 33 33 34 34 33 33 34 32 31 30 29 28 27 26 26 25 25 25 25 25 25 25 25 24 23 22 21
35 35 36 37 36 36 35 35 35 35 35 35 34 34 34 34 34 33 34 34 35 35 34 34 33 32 31 31 31 29 29 28 28 28 27 27 27 27 26 26 26 25 24
36 37 37 37 37 37 37 37 37 37 36 35 35 34 34 34 34 34 34 34 35 35 34 34 34 33 33 32 32 32 31 30 30 30 30 30 29 28 28 28 27 27 27
38 39 38 38 38 38 38 37 37 37 37 36 36 35 34 34 34 35 35 34 34 34 34 34 35 34 34 33 32 33 32 31 31 31 31 31 31 30 30 29 29 29 28
40 40 40 40 40 40 40 37 36 36 37 37 37 35 33 33 34 35 35 34 34 33 32 33 33 33 32 32 31 31 32 31 31 31 32 32 32 32 32 31 30 29 29
41 41 41 41 41 41 41 40 39 38 37 38 37 35 34 33 34 34 34 33 33 33 32 32 31 30 31 31 30 30 30 30 29 29 30 31 31 32 32 32 31 30 29
41 41 41 42 41 41 41 40 40 39 39 38 37 36 35 35 34 32 32 33 33 33 32 31 30 30 30 30 29 28 27 28 28 27 27 27 28 29 30 31 31 30 30
40 41 42 42 42 42 41 41 41 41 40 39 39 38 37 36 34 32 31 32 32 32 31 31 31 30 30 28 28 27 26 26 26 26 26 26 25 26 27 28 29 30 30
40 41 42 42 42 43 43 43 43 43 43 42 42 41 39 38 36 34 32 31 31 32 31 31 30 29 28 27 27 27 26 25 25 25 25 25 25 25 25 26 27 28 29
40 41 43 43 43 44 44 45 45 45 45 44 43 42 41 40 37 35 33 32 31 31 31 30 29 29 28 27 26 26 26 25 25 25 25 25 26 26 26 27 28 29 30
42 43 44 44 44 44 45 45 46 45 45 43 43 42 41 39 37 35 33 32 31 30 31 30 29 28 27 26 25 25 25 25 25 26 26 26 27 27 27 28 29 30 31
44 44 44 44 44 45 44 44 43 42 42 42 41 40 39 37 35 33 33 32 31 31 30 28 27 26 26 25 25 25 25 26 26 26 27 27 28 29 29 29 29 30 31
43 43 43 43 43 42 41 40 39 39 39 38 37 37 36 35 33 31 30 29 28 28 27 26 25 25 25 25 25 26 26 27 28 28 28 29 30 30 30 31 31 32 33
41 41 40 40 40 38 37 36 36 35 34 34 33 32 31 31 29 28 28 26 25 24 24 23 23 23 24 24 25 26 28 29 29 30 30 31 32 32 33 33 33 34 34
37 36 36 36 35 34 33 32 31 32 32 30 29 29 29 29 29 28 27 25 24 23 22 22 22 23 24 25 26 27 28 29 30 31 32 32 33 34 35 35 35 36 36
33 32 31 31 30 30 29 28 28 28 27 26 25 25 26 26 26 25 24 24 23 22 22 22 22 23 24 25 26 27 28 29 30 32 33 34 35 35 36 36 37 37 38
28 28 27 27 26 26 25 24 24 24 23 24 24 23 24 24 24 22 22 22 22 21 20 21 21 22 23 24 25 26 27 29 30 31 33 34 34 35 36 37 38 38 39
26 24 24 23 22 21 21 20 20 21 22 23 23 23 23 22 22 21 20 20 19 18 19 19 20 20 21 22 23 24 26 27 29 30 31 33 34 35 36 37 38 39 39
23 21 20 19 17 17 17 18 18 18 19 21 21 20 20 19 19 18 18 17 17 16 16 17 17 18 19 20 22 23 25 27 29 30 32 34 35 36 36 37 37 38 39
21 20 17 16 15 15 15 15 14 16 16 15 17 17 17 16 16 15 14 14 14 13 14 15 15 16 17 18 20 22 24 26 28 30 32 33 34 35 36 36 37 37 37
19 17 15 15 14 13 13 13 13 13 13 13 14 14 13 12 12 12 12 11 11 12 12 12 13 14 15 17 19 21 23 26 28 29 30 31 32 33 34 35 35 36 35
17 15 13 12 12 11 10 10 10 11 12 12 12 11 11 10 10 9 9 9 9 9 10 10 12 13 15 17 19 21 23 25 27 28 29 29 30 31 31 31 32 33 33
17 15 13 11 10 9 9 8 9 10 11 10 10 10 10 10 9 9 9 8 8 8 9 10 11 13 14 17 19 21 22 24 26 28 28 28 28 28 29 29 28 28 29

GEFSMA_500_meanwind_048.txt.gz
Wind_Speed
30 30 30 31 30 30 30 31 30 29 29 28 27 27 26 25 25 25 25 25 25 25 24 24 23 22 21 20 19 19 19 18 17 16 16 17 17 17 17 17 16 16 15
34 34 34 34 34 34 34 34 34 33 32 32 31 29 28 28 28 27 27 27 27 27 27 27 26 25 25 24 23 22 22 21 20 20 19 19 19 19 19 19 19 19 18
37 37 37 37 37 37 38 37 37 37 36 35 34 32 31 30 30 30 29 30 30 29 29 29 29 29 29 27 27 26 26 25 23 22 22 21 21 21 21 21 21 21 20
39 40 40 39 40 40 40 40 40 39 39 38 37 36 34 33 32 31 31 32 32 31 31 31 30 31 32 31 30 30 29 29 27 26 25 24 24 23 23 23 23 22 22
39 40 41 41 42 42 42 43 42 41 40 39 37 36 35 35 34 32 32 33 33 32 32 32 32 32 33 33 33 33 32 32 31 29 28 26 26 25 25 25 25 24 24
38 39 40 40 41 43 43 44 44 42 40 38 38 37 36 36 37 35 34 34 34 33 31 32 33 33 33 34 35 34 34 33 32 31 30 28 27 27 27 27 26 26 25
38 40 40 41 41 42 43 43 43 40 38 37 37 36 36 35 35 35 36 35 35 34 32 32 32 32 33 35 35 36 35 34 34 33 32 31 30 29 28 28 27 27 27
37 38 39 40 41 41 40 40 41 40 38 37 36 35 34 34 33 33 34 35 35 34 32 31 31 31 31 32 33 35 35 35 35 34 33 32 31 30 29 28 28 28 28
36 37 38 39 39 40 40 40 40 37 36 35 35 35 34 32 32 31 32 33 33 32 31 31 31 30 30 31 31 31 33 34 34 34 32 31 30 30 29 28 29 29 28
37 37 38 39 39 40 40 39 39 37 36 36 36 35 34 31 31 30 31 31 31 31 31 31 30 30 29 30 31 30 31 33 33 32 31 31 30 29 28 27 28 28 28
36 38 39 39 39 39 39 39 38 37 37 36 35 34 33 32 31 31 32 32 32 31 31 31 30 29 29 29 29 29 29 31 31 31 30 30 30 29 28 27 27 27 27
36 37 38 39 39 39 39 39 39 38 37 36 35 35 34 34 34 34 33 33 33 33 32 31 30 29 29 29 29 29 29 29 30 30 29 29 29 28 28 28 27 27 27
35 36 37 38 39 39 39 39 39 39 38 37 36 36 35 35 35 35 34 35 34 34 32 31 30 30 29 29 28 29 29 29 29 30 29 29 29 28 27 27 27 27 27
35 35 36 37 38 39 39 39 39 38 37 37 36 36 36 35 35 35 35 35 35 33 32 31 30 30 29 29 29 29 29 29 29 29 29 29 29 29 28 28 28 28 29
35 35 36 36 37 37 38 38 38 37 37 36 36 36 35 34 34 34 33 33 33 32 31 31 30 29 28 29 29 29 29 28 28 29 28 29 29 29 29 29 29 30 31
35 35 35 35 35 36 37 37 37 36 36 36 35 35 34 33 32 31 31 30 30 30 29 29 28 28 27 28 28 29 29 28 27 28 28 28 28 29 29 30 31 32 33
36 35 35 34 34 34 34 34 34 34 34 34 33 32 31 30 29 30 30 29 28 27 27 27 26 25 25 24 25 26 27 26 27 27 28 28 29 30 31 32 33 34 34
36 35 35 34 33 32 31 31 31 31 31 30 30 29 28 28 28 28 28 28 27 26 26 25 24 24 23 23 23 24 24 25 26 27 27 28 28 29 31 31 32 34 35
36 36 34 33 32 31 30 30 29 28 27 27 27 27 27 26 27 27 27 26 26 25 24 23 22 21 21 21 22 22 22 23 24 24 25 26 27 29 30 31 32 34 36
37 36 34 32 31 29 28 27 26 25 24 24 24 24 24 24 24 25 24 24 24 24 23 22 20 20 20 20 21 21 21 21 22 22 23 24 25 27 28 30 32 33 35
37 35 33 31 30 28 26 24 23 22 22 21 21 21 21 21 22 22 22 23 23 22 21 20 20 20 19 19 18 18 18 19 19 20 21 22 24 25 27 29 31 33 35
36 34 32 30 29 26 24 22 21 20 19 19 19 19 19 20 20 21 21 21 21 21 20 19 19 18 17 16 15 15 16 17 18 18 20 21 23 24 26 28 31 33 36
35 33 31 29 27 25 23 21 19 18 18 18 17 18 19 19 19 19 19 19 19 18 17 17 15 14 13 13 13 13 14 14 15 16 18 19 21 23 25 27 30 32 35
35 32 30 28 25 23 21 19 17 16 16 16 16 16 17 18 17 18 18 17 17 16 15 14 12 12 11 11 11 11 12 13 14 15 16 18 20 22 24 27 29 31 33
36 33 30 27 25 22 20 18 15 14 14 14 14 14 14 15 14 14 15 15 15 14 13 12 11 10 10 9 9 10 10 11 12 14 15 17 20 22 24 26 28 31 33
37 33 30 27 24 21 20 17 15 14 13 12 12 12 12 12 12 13 13 13 13 13 12 11 10 9 8 8 8 8 9 10 12 14 15 17 20 22 25 27 29 31 32